[[{"header":{"parameterUnit":"m.s-1","parameterCategory":1,"la1":30.2991,"la2":30.254,"lo1":-89.0895,"lo2":-89.0444,"dy":0.0017,"dx":0.0017,"nx":28,"ny":28,"refTime":"2024-09-27T03:00:00:Z","depth":0,"parameterNumber":2,"parameterNumberName":"U-component_of_WINDS"},"data":[0,0,0,0,0,0,0,0,0,0,0,0,0,0,0,0,0,0,0,0,0,0,0,0,0,0,0,0,0,0,0,0,0,0,0,0,0,0,0,0,0,0,0,0,0,0,0,0,0,0,0,0,0,0,0,0,0,0,5.5302,5.5304,0,5.5502,5.5504,5.5506,5.5482,5.5479,5.5476,5.5473,5.5682,5.5691,5.5699,0,0,0,0,0,0,0,0,0,0,0,0,0,5.4902,5.491,5.5302,5.5304,5.5307,5.5502,5.5504,5.5507,5.5483,5.5479,5.5475,5.5471,5.568,5.569,5.57,0,0,0,0,0,0,0,0,0,0,0,0,0,5.5087,5.4912,5.5301,5.5318,5.5321,5.5501,5.5504,5.5508,5.5484,5.5479,5.5474,5.5469,5.5676,5.5689,5.5701,5.5879,0,0,5.5741,5.5747,0,0,0,0,0,0,0,0,5.5076,5.5101,5.5313,5.5317,5.5321,5.5462,5.544,5.5632,5.5485,5.5422,5.5472,5.5467,5.5613,5.5631,5.5679,5.5889,5.5898,5.5742,5.575,5.5755,5.5759,0,0,0,0,0,0,0,5.5063,5.5093,5.5381,5.5316,5.5321,5.5317,5.5337,5.5477,5.5543,5.5427,5.5426,5.545,5.5615,5.5667,5.5684,5.5901,5.5742,5.5753,5.5761,5.5766,5.6266,5.6271,0,0,0,0,0,0,5.5046,5.5082,5.5375,5.5387,5.5184,5.5328,5.5351,5.5422,5.5541,5.5555,5.5454,5.5448,5.5647,5.5669,5.5692,5.5907,5.5755,5.5767,5.5775,5.626,5.6267,5.6273,0,0,0,0,0,0,5.5037,5.5072,5.5366,5.5234,5.5271,5.534,5.542,5.5428,5.5481,5.5561,5.5573,5.5495,5.5644,5.5673,5.5832,5.5914,5.5773,5.5785,5.6254,5.6262,5.627,5.6339,0,0,0,0,0,0,5.5026,5.5069,5.5136,5.5236,5.5278,5.5503,5.5425,5.5436,5.5502,5.5497,5.5603,5.5616,5.5643,5.5813,5.5845,5.5929,5.5795,5.6247,5.6258,5.6267,5.633,5.6349,5.6365,0,0,0,0,0,5.5012,5.5149,5.514,5.5175,5.5363,5.5507,5.5532,5.5559,5.5509,5.5578,5.5629,5.5612,5.59,5.5829,5.5865,5.5954,5.6242,5.6255,5.6267,5.6322,5.6345,5.6364,0,0,0,0,0,0,5.5058,5.5162,5.5153,5.5326,5.5408,5.5503,5.559,5.5582,5.5681,5.5672,5.5702,5.5727,5.5887,5.5937,5.5857,5.6133,5.6064,5.6084,5.6094,5.6117,5.6134,5.6118,5.5806,0,0,0,0,0,5.5089,5.5195,5.5281,5.5425,5.5466,5.5521,5.5585,5.5599,5.5685,5.572,5.5783,5.5869,5.5979,5.6051,5.6156,5.6337,5.636,5.6416,5.6434,5.6448,5.6465,5.6564,5.659,5.6314,5.6314,5.6313,0,0,5.5153,5.5222,5.5288,5.5436,5.5501,5.5612,5.5551,5.5671,5.5754,5.5739,5.5892,5.5942,5.604,5.621,5.6289,5.6257,5.6546,5.6463,5.6474,5.6484,5.658,5.6606,5.6629,5.6322,5.6321,5.6319,0,0,5.5325,5.5389,5.5516,5.5582,5.5681,5.5716,5.5747,5.5843,5.5875,5.6029,5.602,5.612,5.6308,5.6378,5.6439,5.6639,5.6627,5.6672,5.6764,5.686,5.6882,5.6902,5.6973,5.6998,5.6689,5.6689,5.6689,0,5.5393,5.5558,5.5583,5.5704,5.577,5.576,5.5889,5.5953,5.6082,5.6128,5.609,5.6326,5.6391,5.6578,5.6626,5.6676,5.6712,5.666,5.6877,5.6897,5.6915,5.6983,5.701,5.6694,5.6694,5.6693,5.6693,0,5.5636,5.5751,5.5843,5.5965,5.6041,5.6166,5.6211,5.6286,5.6293,5.6333,5.649,5.6568,5.6689,5.6734,5.6743,5.6923,5.69,5.6869,5.6801,5.6946,5.7011,5.7037,5.6701,5.6699,5.6698,5.6697,0,0,5.5844,5.5978,5.6011,5.6067,5.6175,5.6265,5.639,5.6507,5.657,5.666,5.6766,5.6925,5.6897,5.6966,5.6982,5.7067,5.7221,5.7026,5.7029,5.7059,5.7424,5.7446,5.7475,5.7213,5.7219,5.7223,5.7415,0,5.6027,5.6247,5.6272,5.6468,5.6575,5.6567,5.6676,5.6755,5.6796,5.6894,5.694,5.7052,5.7007,5.7048,5.7132,5.7184,5.7294,5.7171,5.7313,5.7318,5.7288,5.7509,5.7533,5.7711,5.7441,5.7445,5.7448,0,5.6271,5.6365,5.6571,5.6664,5.671,5.6807,5.6916,5.7009,5.7099,5.7123,5.7199,5.7205,5.7336,5.7262,5.7443,5.7358,5.7419,5.7453,5.7461,5.7475,5.7391,5.7529,5.7768,5.7795,5.7488,5.7485,5.7482,0,5.6401,5.658,5.6726,5.6774,5.6886,5.6955,5.7005,5.709,5.7158,5.7254,5.7299,5.741,5.7471,5.7557,5.7593,5.7536,5.7772,5.7701,5.7796,5.7795,5.7845,5.7842,5.8097,5.7885,5.7885,5.7884,5.7883,0,5.6603,5.6729,5.6786,5.6876,5.7018,5.7047,5.7187,5.7234,5.731,5.741,5.7411,5.7505,5.7547,5.7648,5.7678,5.7823,5.785,5.7874,5.788,5.7874,5.7871,5.7913,5.7902,5.7891,5.789,5.7888,5.7887,0,5.6773,5.6816,5.6974,5.7067,5.7094,5.7194,5.7274,5.7362,5.7402,5.7528,5.756,5.7623,5.7742,5.7786,5.7932,5.7952,5.812,5.8116,5.8089,5.8091,5.8182,5.8173,5.8474,5.8515,5.8276,5.8278,5.828,0,5.6898,5.6995,5.7098,5.7164,5.7216,5.7323,5.7393,5.7426,5.7498,5.7608,5.7683,5.7801,5.7897,5.8088,5.8147,5.8259,5.8258,5.8356,5.8275,5.8265,5.8259,5.8253,5.8263,5.8371,5.8373,5.8375,5.8377,0,5.7117,5.7133,5.7232,5.734,5.7422,5.7508,5.7592,5.7647,5.7693,5.7775,5.7895,5.797,5.8118,5.8235,5.835,5.8403,5.8399,5.8402,5.843,5.8424,5.8404,5.8415,5.813,5.8395,5.8393,5.8392,5.8391,5.839,5.7268,5.7354,5.7439,5.755,5.7616,5.7694,5.7781,5.7831,5.7932,5.8054,5.8068,5.8198,5.8286,5.8438,5.8497,5.86,5.8574,5.8614,5.8624,5.8634,5.864,5.8387,5.8621,5.8621,5.862,5.862,5.862,0,5.7486,5.7541,5.7642,5.7759,5.7846,5.7832,5.7925,5.7999,5.8113,5.8194,5.8288,5.8428,5.8542,5.861,5.8725,5.8794,5.8795,5.8823,5.8818,5.8831,5.8657,5.8621,5.8821,5.8821,5.8821,5.8821,5.8821,5.8821,5.761,5.7754,5.778,5.7957,5.8011,5.8137,5.8191,5.8264,5.8329,5.8483,5.8577,5.8621,5.8698,5.8818,5.8922,5.894,5.8982,5.9013,5.9028,5.8864,5.8843,5.8823,5.879,5.9022,5.9022,5.9193,5.9195,5.9196]},{"header":{"parameterUnit":"m.s-1","parameterCategory":1,"la1":30.2991,"la2":30.254,"lo1":-89.0895,"lo2":-89.0444,"dy":0.0017,"dx":0.0017,"nx":28,"ny":28,"refTime":"2024-09-27T03:00:00:Z","depth":0,"parameterNumber":3,"parameterNumberName":"V-component_of_WINDS"},"data":[0,0,0,0,0,0,0,0,0,0,0,0,0,0,0,0,0,0,0,0,0,0,0,0,0,0,0,0,0,0,0,0,0,0,0,0,0,0,0,0,0,0,0,0,0,0,0,0,0,0,0,0,0,0,0,0,0,0,2.7294,2.7296,0,2.7396,2.7398,2.7399,2.74,2.7399,2.7398,2.7396,2.7501,2.7505,2.7509,0,0,0,0,0,0,0,0,0,0,0,0,0,2.7101,2.7104,2.7294,2.7296,2.7297,2.7396,2.7398,2.7399,2.74,2.7399,2.7397,2.7396,2.75,2.7504,2.7509,0,0,0,0,0,0,0,0,0,0,0,0,0,2.7192,2.7105,2.7294,2.731,2.7312,2.7396,2.7398,2.7399,2.7401,2.7399,2.7397,2.7395,2.7498,2.7504,2.751,2.7585,0,0,2.7528,2.7531,0,0,0,0,0,0,0,0,2.7187,2.7199,2.7306,2.7309,2.7311,2.7384,2.7368,2.7462,2.7401,2.7367,2.7396,2.7394,2.7464,2.7472,2.7496,2.759,2.7595,2.7529,2.7532,2.7535,2.7537,0,0,0,0,0,0,0,2.718,2.7195,2.7335,2.7308,2.7311,2.7311,2.7322,2.7385,2.7425,2.737,2.737,2.7382,2.7465,2.749,2.7498,2.7596,2.7529,2.7534,2.7538,2.754,2.7758,2.776,0,0,0,0,0,0,2.7171,2.7189,2.7331,2.7338,2.7243,2.7316,2.7328,2.7362,2.7424,2.7432,2.7384,2.7382,2.7481,2.7491,2.7502,2.7594,2.7535,2.754,2.7544,2.7755,2.7758,2.776,0,0,0,0,0,0,2.7167,2.7184,2.7327,2.7264,2.7282,2.7322,2.736,2.7365,2.7391,2.7435,2.7442,2.7402,2.748,2.7493,2.7564,2.7598,2.7543,2.7549,2.7753,2.7756,2.7759,2.7779,0,0,0,0,0,0,2.7161,2.7182,2.7211,2.7264,2.7285,2.7389,2.7362,2.7369,2.7401,2.7399,2.7454,2.7461,2.7479,2.7556,2.757,2.7605,2.7553,2.775,2.7754,2.7758,2.7776,2.7783,2.7789,0,0,0,0,0,2.7154,2.7213,2.7213,2.723,2.7323,2.739,2.7402,2.7422,2.7404,2.7433,2.7461,2.7459,2.7592,2.7563,2.758,2.7617,2.7748,2.7753,2.7758,2.7773,2.7782,2.7789,0,0,0,0,0,0,2.7163,2.722,2.7221,2.7298,2.7339,2.7391,2.7429,2.743,2.7478,2.7474,2.7496,2.7509,2.7579,2.7605,2.7572,2.7693,2.7668,2.7676,2.7673,2.7682,2.7688,2.7681,2.7558,0,0,0,0,0,2.7174,2.7224,2.7271,2.7335,2.7356,2.7389,2.7419,2.743,2.7474,2.7491,2.7525,2.7567,2.7618,2.7651,2.7701,2.7779,2.7791,2.7813,2.7819,2.7825,2.7832,2.7875,2.7886,2.7777,2.7777,2.7777,0,0,2.7197,2.7235,2.7265,2.7338,2.7371,2.7423,2.7403,2.7459,2.7497,2.75,2.7569,2.7595,2.7643,2.7719,2.7753,2.7742,2.7864,2.7831,2.7835,2.7839,2.7881,2.7892,2.7901,2.778,2.7779,2.7779,0,0,2.7266,2.7299,2.7356,2.739,2.744,2.7461,2.7475,2.7526,2.7543,2.7613,2.7616,2.7662,2.7749,2.7784,2.7813,2.7894,2.7894,2.7909,2.7943,2.7985,2.7994,2.8002,2.8031,2.8041,2.7916,2.7916,2.7916,0,2.7289,2.7366,2.7385,2.7441,2.7473,2.7477,2.7535,2.7566,2.763,2.7652,2.7639,2.7748,2.7781,2.7865,2.7884,2.7907,2.7924,2.7903,2.7991,2.7999,2.8007,2.8034,2.8045,2.7918,2.7917,2.7917,2.7917,0,2.7392,2.7445,2.7485,2.7547,2.7583,2.764,2.7667,2.7701,2.7709,2.7732,2.7802,2.7842,2.79,2.792,2.7928,2.8004,2.7996,2.7986,2.7962,2.8018,2.8045,2.8056,2.792,2.7919,2.7919,2.7918,0,0,2.747,2.754,2.7555,2.7583,2.7638,2.768,2.7736,2.7792,2.7822,2.7865,2.7913,2.7987,2.7978,2.8011,2.8023,2.806,2.8121,2.8046,2.8047,2.8059,2.8208,2.8215,2.8227,2.8121,2.8124,2.8125,2.8204,0,2.7544,2.7645,2.7663,2.7751,2.78,2.7805,2.7854,2.7893,2.7915,2.7961,2.7985,2.8037,2.8022,2.8042,2.8078,2.8106,2.8152,2.8101,2.8166,2.8168,2.8154,2.8241,2.8249,2.8321,2.8214,2.8216,2.8217,0,2.7645,2.7692,2.7784,2.7833,2.7854,2.7898,2.7951,2.7994,2.8038,2.8052,2.8088,2.8096,2.8155,2.8127,2.8208,2.8172,2.82,2.8218,2.8221,2.8228,2.8197,2.8251,2.8345,2.8355,2.8234,2.8233,2.8231,0,2.7693,2.7778,2.7845,2.7868,2.7927,2.7957,2.7983,2.8025,2.8058,2.8104,2.8125,2.8177,2.8206,2.8246,2.8267,2.8245,2.8346,2.832,2.8359,2.8359,2.8381,2.838,2.8481,2.8398,2.8398,2.8398,2.8398,0,2.7775,2.7831,2.7867,2.7908,2.7971,2.7991,2.8053,2.8078,2.8116,2.8162,2.8168,2.8211,2.8237,2.8283,2.83,2.8364,2.8377,2.839,2.8394,2.839,2.8388,2.8408,2.8404,2.8401,2.84,2.84,2.8399,0,2.7839,2.7865,2.7938,2.7987,2.8001,2.8045,2.8087,2.8127,2.8149,2.8206,2.8221,2.8256,2.831,2.8336,2.8403,2.8415,2.8488,2.8488,2.8473,2.8475,2.8512,2.8509,2.8631,2.8648,2.8554,2.8554,2.8555,0,2.789,2.7934,2.7987,2.8018,2.8045,2.8095,2.8128,2.8149,2.8183,2.8237,2.827,2.8325,2.837,2.8458,2.8489,2.8541,2.8542,2.8582,2.855,2.8545,2.8543,2.8541,2.8545,2.8587,2.8588,2.8589,2.859,0,2.7978,2.7988,2.8035,2.8087,2.8127,2.8168,2.8209,2.8234,2.8262,2.83,2.8356,2.8391,2.846,2.8515,2.8568,2.8595,2.8597,2.8599,2.8611,2.8608,2.8597,2.8603,2.8489,2.8597,2.8596,2.8595,2.8595,2.8595,2.8037,2.8076,2.812,2.8172,2.8205,2.8243,2.8283,2.831,2.8357,2.8415,2.8424,2.8484,2.8527,2.8599,2.8627,2.8674,2.8665,2.8682,2.8687,2.8691,2.8693,2.8589,2.8684,2.8684,2.8684,2.8684,2.8684,0,2.8125,2.8153,2.8201,2.8258,2.83,2.8298,2.8343,2.8377,2.843,2.847,2.8514,2.8578,2.8631,2.8666,2.8719,2.875,2.8753,2.8764,2.8762,2.8768,2.8698,2.8683,2.8761,2.8761,2.8761,2.8761,2.8761,2.8761,2.8176,2.8241,2.8257,2.8339,2.8366,2.8425,2.8451,2.8486,2.8518,2.8589,2.8633,2.8656,2.8694,2.875,2.8798,2.8807,2.8826,2.8838,2.8846,2.8781,2.8773,2.8765,2.8751,2.8842,2.8842,2.8912,2.8913,2.8913]}]]